Temperature
16 16 15 15 15 15 15 15 15 15 15 15 15 15 15 15 15 15 15 15 15 15 15 15 15 15 15 15 15 15 15 15 15 15 16 16 16 16 16 15 15 15 15
15 15 15 15 15 15 15 15 15 15 15 15 15 15 15 15 15 15 14 15 15 15 15 15 15 15 15 15 15 15 15 15 15 15 15 15 15 15 15 15 15 15 15
15 15 15 15 15 15 15 15 15 15 15 15 15 15 15 15 15 15 14 14 14 15 15 15 15 15 15 15 15 15 15 15 15 15 15 15 15 15 15 15 15 15 15
15 15 15 15 15 15 15 15 15 15 15 15 15 15 15 15 15 14 14 14 14 14 14 15 15 14 14 14 14 14 14 15 15 15 15 15 15 15 15 15 15 15 15
15 15 15 15 15 15 15 15 15 15 15 15 14 15 14 14 14 14 14 14 14 14 14 14 14 14 14 14 14 14 14 14 14 14 14 14 14 15 14 15 15 14 14
15 15 15 15 14 14 14 14 14 14 14 14 14 14 14 14 14 14 14 14 14 14 14 14 14 14 14 14 14 14 14 14 14 14 14 14 14 14 14 14 14 14 14
15 15 15 15 14 14 14 14 14 14 14 14 14 14 14 14 14 14 14 14 14 14 14 13 13 13 13 14 14 14 14 14 14 14 14 14 14 14 14 14 14 14 14
15 15 15 14 14 14 14 14 14 14 14 14 14 15 15 15 14 14 14 14 14 13 13 13 13 13 13 13 13 14 14 14 13 13 14 14 14 14 14 14 14 14 14
15 15 15 14 14 14 14 14 14 14 14 14 14 14 15 16 14 14 14 13 13 13 13 13 13 13 13 13 13 13 14 14 13 13 13 13 13 13 13 13 13 13 13
15 15 14 14 14 14 14 14 14 14 14 14 14 14 14 14 14 14 14 13 13 13 13 13 13 13 13 13 13 13 13 13 13 13 13 13 13 13 13 13 13 13 13
15 15 14 14 14 14 14 14 14 14 14 13 13 13 13 13 14 14 14 14 13 13 13 13 13 12 13 12 13 13 13 13 13 13 13 13 13 13 13 13 13 13 13
15 14 14 14 14 14 14 14 14 13 13 13 13 13 13 13 14 14 14 14 13 13 13 13 12 12 12 12 12 13 13 13 13 13 13 13 13 13 13 13 13 13 12
14 14 14 14 14 14 14 13 13 13 13 13 13 13 13 13 13 13 14 13 13 13 13 13 12 12 12 12 12 12 12 12 13 13 13 13 13 13 13 12 12 12 12
14 14 14 14 14 13 13 13 13 13 13 13 13 13 13 13 13 13 13 13 13 13 13 13 12 12 12 12 12 12 12 12 12 12 12 12 12 12 12 12 12 12 12
14 14 14 14 13 13 13 13 13 13 13 13 12 12 12 12 12 12 12 12 13 13 13 13 12 12 12 12 12 11 11 12 12 12 12 12 12 12 12 12 12 12 12
14 14 14 14 13 13 13 13 13 13 12 13 13 12 12 12 12 12 12 12 12 12 13 12 12 12 11 11 11 11 11 11 12 12 12 12 12 12 12 12 12 12 12
14 14 14 13 13 13 13 13 13 12 12 12 12 12 12 12 12 12 12 12 12 12 12 12 11 11 11 11 11 11 11 11 11 11 11 11 11 11 11 11 11 11 11
13 13 13 13 13 13 13 13 13 12 12 12 12 12 12 12 12 12 12 12 12 12 12 11 11 11 11 11 11 11 11 11 11 11 11 11 11 11 11 11 11 11 11
13 13 13 13 13 12 12 12 12 12 12 12 12 12 12 11 11 11 11 11 11 11 11 11 11 11 11 10 11 11 10 10 10 11 11 11 11 11 11 11 11 11 11
13 13 13 13 12 12 12 12 12 12 12 12 11 11 11 11 11 11 11 11 11 11 11 11 11 10 10 10 10 10 10 10 10 10 10 10 11 11 11 11 11 10 10
13 13 12 12 12 12 12 12 12 11 11 11 11 11 11 11 11 11 11 11 11 11 10 10 10 10 10 10 10 10 10 10 10 10 10 10 10 10 10 10 10 10 10
12 12 12 12 12 12 12 12 12 11 11 11 11 11 11 11 11 11 11 11 11 10 10 10 10 10 10 10 10 10 9 9 9 10 10 10 10 10 10 10 10 10 10
12 12 12 12 12 12 12 12 12 11 11 11 11 10 10 11 11 10 11 11 11 10 10 10 10 10 10 10 9 9 9 9 9 9 9 9 9 9 9 10 10 10 10
12 12 12 12 12 12 12 12 12 11 11 10 10 10 10 10 10 10 10 10 10 10 10 10 10 10 10 9 9 9 9 9 9 9 9 9 9 9 9 9 10 10 10
11 11 11 11 11 11 11 11 11 11 10 10 10 10 10 10 10 10 10 10 10 10 10 10 10 10 10 9 9 9 9 9 9 8 9 8 9 9 9 9 9 9 9
11 11 11 11 11 11 11 11 11 10 10 10 10 10 10 10 10 10 10 9 9 9 9 9 9 9 9 9 9 9 9 8 8 8 8 8 8 8 8 9 9 9 9
Wind_Speed
4 5 5 4 4 5 4 4 4 5 5 6 6 6 6 7 7 7 8 12 11 11 10 10 10 10 10 10 10 10 9 9 9 9 9 9 8 8 8 7 7 6 7
4 4 5 4 4 4 4 4 5 4 4 5 5 6 6 6 6 6 6 9 11 11 10 9 9 9 9 9 9 9 9 9 8 8 8 8 8 8 8 7 7 6 6
4 3 3 4 4 4 4 4 5 4 4 4 4 5 5 5 5 6 5 5 7 10 10 9 9 9 9 8 8 8 8 8 8 8 8 8 8 8 8 7 7 7 7
4 3 3 3 3 3 3 3 3 3 3 3 3 3 4 4 4 5 5 5 5 5 8 10 8 8 8 7 8 8 8 7 7 8 8 8 7 7 7 7 7 7 7
3 3 2 2 3 2 2 2 2 2 2 2 3 2 3 3 3 3 4 5 5 5 5 7 8 8 7 7 7 7 7 7 7 7 7 7 7 7 7 7 7 7 7
2 2 2 2 2 2 1 2 2 1 1 1 2 2 2 2 2 3 3 3 4 4 4 4 4 6 7 7 6 6 6 6 6 6 6 7 7 7 7 7 7 7 7
2 2 1 1 1 1 1 1 1 1 1 1 1 2 2 2 2 2 2 2 3 3 3 3 3 3 4 6 6 6 6 5 5 6 6 6 6 6 7 7 7 7 7
2 1 2 2 2 1 2 2 1 1 1 1 1 1 1 2 2 2 2 1 2 2 2 3 3 3 3 3 6 6 5 5 4 4 4 4 5 5 5 6 6 6 6
2 2 2 2 2 2 2 2 2 2 2 1 1 2 1 1 1 2 1 1 1 1 1 1 2 3 3 3 3 5 4 4 3 3 3 3 4 4 4 4 5 5 6
3 2 2 3 3 2 2 3 3 2 2 2 1 2 2 1 1 1 2 2 1 1 0 0 1 1 2 3 4 5 5 4 3 2 2 2 2 3 3 3 3 4 5
3 3 3 3 3 3 3 3 3 3 3 2 2 1 1 1 3 2 1 1 1 1 0 1 0 0 1 2 2 5 5 5 4 3 2 2 2 3 2 2 2 3 4
3 4 4 4 3 3 3 4 4 4 3 3 3 2 2 2 2 2 2 2 1 0 1 1 1 0 0 1 3 5 5 4 4 4 3 3 3 3 2 1 1 2 3
3 4 4 4 4 4 4 4 4 4 4 4 4 3 3 3 2 2 2 2 2 1 1 1 1 1 1 1 2 3 3 4 4 4 4 3 3 3 2 2 2 1 2
4 5 5 5 5 4 4 4 4 5 4 5 5 4 3 3 2 2 2 2 2 2 2 1 1 1 1 1 2 1 2 3 3 3 3 3 2 2 2 2 2 1 1
4 5 5 5 5 5 5 5 4 5 5 5 5 5 4 3 3 3 3 3 3 3 2 1 1 1 1 1 1 2 1 3 2 2 2 2 2 1 2 2 2 1 1
5 5 5 5 5 5 5 5 5 5 5 5 4 5 4 4 3 3 4 4 4 4 3 1 1 1 2 2 2 3 1 2 1 0 1 2 2 1 1 1 1 1 2
5 6 6 6 6 6 6 5 6 5 6 6 6 6 6 4 4 4 4 4 4 4 4 3 1 2 2 3 2 3 3 3 2 2 1 2 2 2 1 1 2 2 2
6 6 6 6 6 6 6 6 6 6 6 6 6 6 6 4 5 5 4 5 4 5 5 4 3 2 3 3 3 3 3 3 3 2 3 3 3 3 3 3 3 3 3
6 6 6 6 6 6 6 6 6 6 6 6 6 6 6 6 6 5 5 4 4 4 4 5 4 2 3 3 3 3 4 3 4 3 4 5 4 4 4 4 4 4 4
6 6 6 6 6 6 6 6 6 6 6 6 6 6 7 7 7 6 5 5 4 5 5 5 4 3 3 3 3 3 3 3 4 4 3 4 5 6 7 6 6 5 5
6 6 6 6 6 5 5 6 6 6 6 6 6 6 6 5 4 4 4 5 5 5 5 4 4 4 4 3 4 4 4 4 4 3 4 4 4 5 5 7 7 6 6
5 5 6 6 5 5 3 3 5 6 6 6 6 6 5 6 5 5 5 5 5 6 6 5 5 5 5 5 4 4 4 4 4 3 4 5 4 4 4 5 4 5 7
5 5 6 6 6 5 5 5 5 6 6 6 6 5 4 4 5 6 6 7 7 6 7 7 7 6 6 4 5 6 6 5 4 2 4 5 4 5 4 4 4 6 7
5 5 5 6 5 5 6 6 6 7 7 6 6 5 5 5 5 5 6 6 6 6 6 7 7 6 5 5 6 6 6 5 5 3 3 5 4 4 4 5 6 7 8
5 5 5 5 5 5 5 5 5 5 6 6 5 5 5 5 3 3 6 6 5 4 4 5 4 4 3 3 4 4 4 4 4 3 3 4 4 4 4 4 4 8 9
5 5 5 5 5 4 4 5 5 4 5 5 4 4 3 3 2 4 6 5 6 5 4 4 4 5 5 4 6 6 5 5 4 3 3 3 4 3 3 3 3 3 5
Wind_Direction
91 93 89 81 77 79 84 78 75 71 71 69 66 65 67 71 72 72 72 63 58 60 69 75 76 76 77 76 74 72 72 71 72 72 69 65 65 66 63 61 60 58 53
96 91 87 81 75 74 76 81 79 78 75 70 68 66 63 68 71 76 79 78 68 60 61 68 71 71 72 72 72 71 71 72 68 71 71 67 64 63 62 59 54 54 50
96 94 86 85 82 83 81 76 77 75 78 81 77 70 68 64 69 71 71 71 79 75 64 63 68 69 68 68 69 68 69 69 67 67 69 68 63 60 60 58 51 51 48
101 93 89 86 85 81 79 77 75 78 79 77 75 70 76 79 75 73 77 77 70 73 76 65 63 65 67 69 70 68 69 70 69 67 68 67 62 58 56 51 47 47 46
114 106 94 96 99 88 78 80 72 71 81 82 82 75 74 78 79 79 77 74 76 76 81 88 76 63 57 60 66 63 66 69 69 69 70 67 62 58 54 49 49 48 45
130 116 130 129 119 115 96 94 91 81 81 90 92 88 89 95 89 73 70 74 74 74 69 72 87 86 72 59 58 61 63 65 71 74 71 66 62 59 54 50 49 45 43
159 146 168 151 151 155 148 140 129 132 133 118 145 123 121 102 92 97 79 76 80 71 72 67 61 68 91 86 62 58 60 64 76 75 69 65 62 57 52 51 48 43 41
194 194 205 198 190 186 191 180 193 229 178 231 281 257 180 152 133 110 114 92 82 83 62 60 61 63 53 67 77 69 59 60 78 77 73 70 65 57 53 51 45 43 42
205 223 225 220 214 217 206 209 212 221 231 244 281 300 295 344 121 154 124 124 103 104 103 74 63 62 61 62 71 73 57 53 59 67 73 70 60 52 54 50 46 47 43
207 214 222 225 218 222 214 215 218 224 233 240 226 284 306 329 285 208 174 150 131 148 79 79 55 68 70 68 71 61 53 50 39 41 37 41 40 44 52 51 53 57 49
211 216 223 226 225 222 224 222 223 229 226 244 241 238 242 248 267 278 268 224 189 170 322 313 284 74 76 73 64 69 57 48 41 35 20 15 16 22 38 55 61 61 52
218 218 220 221 224 227 227 226 223 223 238 240 248 247 248 253 259 255 263 257 265 276 253 257 258 168 120 103 77 72 58 48 42 38 33 25 18 11 13 38 71 60 52
224 220 215 222 223 229 228 222 222 226 229 233 241 249 253 267 266 264 260 272 278 269 253 230 200 179 186 153 108 83 77 56 42 36 32 22 22 29 28 33 40 52 50
234 227 219 222 221 224 225 221 230 226 233 233 235 233 239 248 246 250 261 269 271 264 245 235 185 200 213 198 91 234 115 87 51 38 32 25 26 33 33 30 28 32 32
237 230 219 219 218 220 223 221 229 226 231 238 239 232 231 236 234 237 242 251 267 272 268 231 225 201 212 209 164 237 229 94 57 30 21 13 13 24 31 31 25 9 13
230 227 222 221 220 219 219 219 231 236 233 232 239 242 238 237 233 230 234 246 254 265 274 266 241 221 217 237 216 253 249 135 209 294 356 352 335 333 345 360 353 343 337
228 226 223 222 223 224 221 216 227 227 233 232 226 230 233 235 227 226 234 242 244 246 257 268 247 229 231 245 230 243 246 246 226 187 260 305 316 299 292 300 303 299 297
227 226 223 225 225 226 226 224 226 226 230 231 229 229 229 222 229 229 230 237 239 240 250 258 258 253 255 249 249 249 253 254 258 185 228 259 268 273 267 264 271 276 281
226 225 227 227 226 224 224 228 229 231 230 231 230 230 229 225 227 227 229 236 242 241 243 249 254 260 257 244 246 251 253 255 256 230 223 230 236 249 256 255 259 262 265
226 226 227 227 226 223 224 229 231 230 230 232 230 232 233 232 233 232 229 231 234 236 233 239 242 244 241 243 239 244 249 248 256 252 245 247 230 235 240 244 247 253 258
228 227 227 226 223 220 226 229 229 229 228 228 228 231 235 241 259 247 241 235 230 231 230 235 239 244 238 231 238 245 252 256 256 252 258 250 241 246 240 232 232 239 247
227 225 225 222 221 220 208 219 237 228 228 226 227 226 223 220 224 227 243 248 248 241 237 234 238 241 244 240 240 243 246 252 258 243 261 260 252 254 251 249 233 231 237
222 220 220 219 222 218 192 199 221 231 233 231 226 222 223 222 220 228 216 216 229 243 252 252 247 248 249 246 242 244 244 250 263 266 266 264 254 258 254 248 225 227 230
218 219 219 220 222 217 193 202 215 227 230 230 226 226 225 225 224 235 229 226 231 230 235 245 249 253 254 253 244 245 253 259 258 240 251 267 265 263 266 255 225 223 228
219 222 220 218 220 215 189 199 216 224 230 230 228 228 226 228 203 222 232 231 233 234 221 240 271 275 289 272 262 245 243 247 257 247 244 264 272 277 268 255 233 221 228
217 217 219 219 219 218 172 182 213 222 226 226 225 222 213 242 203 210 227 232 236 240 237 227 229 230 240 223 220 233 237 245 256 252 228 247 259 269 270 259 261 252 241
Height
1546 1546 1546 1546 1546 1546 1546 1546 1546 1546 1546 1546 1546 1546 1546 1545 1545 1545 1544 1543 1542 1542 1541 1541 1541 1540 1540 1539 1539 1538 1538 1538 1537 1537 1537 1536 1536 1536 1536 1536 1535 1535 1535
1547 1547 1547 1547 1547 1547 1547 1547 1547 1547 1547 1547 1547 1546 1546 1546 1546 1546 1545 1544 1544 1543 1543 1542 1542 1541 1541 1541 1540 1539 1539 1539 1538 1538 1537 1537 1536 1536 1536 1536 1536 1535 1535
1548 1548 1548 1548 1548 1547 1548 1548 1548 1547 1547 1547 1547 1547 1547 1546 1546 1546 1546 1546 1545 1544 1543 1543 1543 1542 1542 1541 1541 1540 1540 1539 1539 1538 1538 1537 1537 1537 1537 1536 1536 1535 1535
1549 1548 1548 1549 1548 1548 1548 1548 1548 1548 1548 1548 1548 1548 1547 1547 1547 1547 1547 1546 1546 1545 1544 1543 1543 1543 1543 1542 1542 1541 1540 1539 1539 1538 1538 1537 1537 1537 1537 1536 1536 1535 1535
1549 1549 1549 1549 1549 1549 1549 1549 1549 1548 1548 1548 1548 1547 1547 1547 1547 1547 1547 1547 1546 1546 1545 1544 1544 1543 1543 1542 1542 1541 1540 1540 1539 1538 1538 1538 1537 1537 1537 1536 1536 1536 1535
1550 1550 1549 1550 1550 1549 1549 1549 1548 1548 1548 1548 1548 1548 1547 1547 1547 1547 1547 1547 1547 1546 1545 1545 1544 1544 1543 1542 1542 1541 1541 1540 1539 1539 1539 1538 1538 1537 1537 1536 1536 1535 1535
1549 1549 1549 1550 1549 1549 1549 1549 1548 1548 1548 1548 1548 1548 1548 1548 1547 1547 1547 1547 1546 1546 1546 1545 1545 1544 1544 1542 1542 1541 1541 1540 1540 1539 1539 1538 1538 1537 1537 1536 1536 1535 1535
1548 1549 1549 1549 1549 1548 1548 1548 1548 1548 1548 1547 1548 1548 1548 1549 1547 1547 1546 1546 1547 1546 1545 1545 1545 1544 1544 1543 1542 1541 1541 1540 1540 1539 1539 1538 1538 1537 1537 1536 1536 1535 1535
1547 1548 1548 1548 1548 1548 1548 1547 1547 1547 1547 1547 1547 1548 1548 1547 1547 1547 1546 1546 1546 1545 1545 1545 1544 1544 1543 1543 1542 1541 1540 1540 1539 1539 1539 1538 1538 1537 1537 1536 1536 1535 1534
1546 1546 1546 1546 1547 1547 1546 1546 1546 1546 1546 1546 1546 1546 1547 1547 1547 1547 1547 1546 1545 1545 1545 1544 1544 1543 1543 1542 1541 1540 1539 1539 1539 1538 1538 1538 1537 1536 1536 1536 1535 1535 1534
1544 1544 1544 1545 1545 1545 1545 1545 1545 1545 1545 1545 1545 1545 1545 1545 1545 1546 1545 1545 1545 1544 1544 1543 1543 1542 1542 1541 1540 1539 1539 1538 1538 1537 1537 1537 1536 1536 1535 1535 1534 1534 1533
1542 1542 1542 1542 1543 1543 1543 1543 1543 1543 1544 1544 1544 1544 1544 1544 1544 1544 1544 1544 1544 1544 1543 1542 1542 1541 1541 1540 1539 1539 1538 1538 1537 1536 1536 1536 1535 1535 1534 1534 1533 1533 1532
1539 1540 1540 1540 1540 1540 1541 1541 1541 1541 1542 1542 1542 1542 1542 1542 1543 1543 1543 1542 1542 1542 1541 1541 1540 1540 1540 1539 1539 1538 1537 1536 1536 1535 1535 1534 1534 1534 1533 1532 1532 1531 1531
1537 1537 1537 1538 1538 1538 1538 1538 1539 1539 1540 1540 1540 1540 1540 1540 1541 1541 1541 1541 1541 1541 1540 1540 1539 1539 1539 1538 1537 1537 1536 1535 1535 1534 1534 1533 1533 1532 1532 1531 1530 1530 1530
1534 1535 1535 1535 1535 1535 1536 1536 1536 1537 1537 1538 1538 1538 1538 1538 1538 1539 1539 1539 1540 1539 1539 1539 1538 1537 1537 1536 1536 1536 1535 1534 1533 1533 1532 1532 1531 1531 1530 1530 1529 1529 1528
1531 1532 1532 1533 1533 1533 1533 1533 1534 1534 1535 1535 1535 1536 1536 1536 1536 1536 1537 1537 1538 1538 1537 1537 1536 1536 1535 1535 1534 1534 1534 1532 1532 1531 1531 1530 1530 1529 1529 1528 1528 1527 1527
1528 1528 1529 1529 1530 1530 1530 1530 1531 1531 1532 1532 1532 1533 1533 1533 1533 1534 1534 1535 1535 1535 1535 1535 1535 1534 1533 1533 1532 1532 1532 1531 1530 1529 1529 1528 1528 1527 1527 1526 1526 1526 1525
1524 1524 1525 1525 1526 1526 1527 1527 1528 1528 1528 1529 1529 1530 1530 1530 1531 1531 1531 1532 1532 1532 1533 1532 1532 1532 1531 1531 1530 1529 1529 1529 1528 1527 1527 1526 1526 1525 1525 1524 1524 1524 1523
1520 1521 1521 1522 1522 1523 1523 1524 1524 1525 1525 1525 1526 1526 1527 1527 1528 1528 1528 1529 1529 1529 1530 1530 1529 1529 1528 1528 1527 1527 1527 1526 1526 1525 1524 1524 1523 1523 1522 1522 1522 1521 1521
1517 1517 1517 1518 1518 1519 1520 1520 1521 1521 1522 1522 1522 1523 1523 1524 1525 1525 1525 1526 1526 1526 1526 1527 1526 1526 1526 1525 1525 1524 1524 1524 1523 1523 1522 1521 1520 1520 1519 1519 1519 1519 1518
1513 1513 1514 1514 1515 1515 1516 1516 1517 1518 1518 1519 1519 1519 1519 1520 1521 1522 1522 1523 1523 1523 1523 1523 1523 1523 1523 1522 1522 1522 1522 1521 1520 1520 1519 1519 1518 1517 1517 1516 1516 1515 1515
1508 1509 1510 1510 1511 1511 1512 1512 1513 1514 1514 1515 1515 1515 1516 1516 1517 1517 1518 1519 1519 1520 1520 1520 1520 1520 1520 1520 1519 1519 1519 1518 1518 1517 1516 1516 1515 1514 1514 1513 1513 1512 1512
1504 1505 1505 1506 1507 1507 1508 1508 1509 1510 1511 1511 1512 1512 1512 1513 1513 1514 1514 1514 1515 1515 1516 1517 1517 1517 1517 1516 1516 1516 1516 1515 1515 1514 1513 1513 1512 1511 1511 1510 1510 1509 1509
1500 1501 1502 1502 1503 1503 1504 1504 1505 1506 1507 1507 1508 1509 1509 1509 1510 1510 1511 1511 1512 1512 1512 1512 1513 1513 1513 1513 1512 1513 1512 1512 1511 1511 1510 1510 1509 1508 1507 1507 1506 1506 1506
1497 1497 1498 1499 1499 1500 1500 1500 1501 1502 1503 1503 1504 1505 1505 1506 1506 1506 1507 1508 1508 1508 1508 1508 1508 1509 1508 1508 1508 1508 1508 1508 1508 1507 1507 1506 1505 1505 1504 1503 1502 1502 1502
1493 1494 1494 1495 1495 1496 1496 1496 1497 1498 1498 1499 1500 1501 1501 1501 1502 1502 1503 1504 1504 1504 1505 1505 1505 1505 1505 1504 1504 1505 1505 1505 1504 1504 1503 1503 1502 1501 1501 1500 1499 1499 1498